Simultaneous Nadir Overpasses (SNOs) Predictions

Prediction of SNOs between GOES-14 and NOAA-20 Satellite Orbit:

Table of predicted SNOs for the next 14.0 days since TLE Epoch: 8/3/2024
Index Date Time (GOES-14) GOES-14 Lat,Lon NOAA-20 Lat,Lon Distance(km) Time Diff (sec)
1 08/03/2024 20:23:25 0.37,-108.43 1.24,-104.64 432.66 80
2 08/05/2024 08:42:32 -0.40,-108.47 -0.08,-109.92 165.12 80
3 08/06/2024 08:26:27 -0.39,-108.46 -1.05,-105.38 351.20 80
4 08/07/2024 20:45:44 0.42,-108.42 -0.08,-110.70 258.82 80
5 08/08/2024 20:29:38 0.40,-108.43 0.89,-106.16 258.02 80
6 08/10/2024 08:48:46 -0.43,-108.47 0.26,-111.43 338.60 80
7 08/11/2024 08:32:41 -0.42,-108.47 -0.78,-106.91 177.70 80
8 08/12/2024 20:51:58 0.45,-108.42 -0.40,-112.22 433.37 80
9 08/13/2024 20:35:52 0.44,-108.41 0.59,-107.68 82.99 80
10 08/16/2024 08:38:55 -0.46,-108.45 -0.49,-108.44 3.72 80
